Powrót do katalogu

STARLINK-3181

AktywnyŁącznośćVLEO
NORAD 51461·PAYLOAD·🇺🇸 United States

Wystrzelony Feb 3, 2022 z Cape Canaveral Space Force Station

Loading…

Następne Przeloty (najbliższe 24 godziny)

TLE

ŚwieżeSource: CelesTrak SupGP

Epoka: Sep 14, 2026, 21:30 UTC

1 51461C 22010F   26257.89631944 -.00022134  00000+0 -63307-3 0  2570
2 51461  53.1573 141.6926 0001305  81.8945 192.6886 15.35419770    19

Śledź STARLINK-3181 w czasie rzeczywistym z AllMySat

Download on the App Store